Location: Errabaliem
(16.8108°N, 80.4255°E)
Time: 12:38:27
(UTC+00:00)

CBERS 1 LM4 rocket - Pass Details

Date: 05 August 2024
Orbit: 698 x 836 km, 98.8° (Epoch: 12 September)

Event Time Altitude Azimuth Distance (km) Brightness Sun altitude
Rises 13:47:26 0° 168° (SSE) 3,201 7.4 -9.6°
Reaches altitude 10° 13:49:45 10° 169° (S) 2,257 6.6 -10.1°
Maximum altitude 13:54:42 84° 257° (WSW) 734 4.5 -11.2°
Drops below altitude 10° 13:59:30 10° 346° (NNW) 2,186 7.4 -12.3°
Sets 14:01:43 0° 347° (NNW) 3,094 8.2 -12.7°
